EUTELSAT 8 WEST B

Last updated on Sun Mar 15 2026 00:02:54 GMT+0000 (Coordinated Universal Time)

1 40875U 15039B 26073.35297058 -.00000066 00000+0 00000+0 0 9990 2 40875 0.0671 352.1102 0003823 0.7431 298.1723 1.00271645 38701
UTC large
Height (km)
Speed (km/s)
/
Latitude / Longitude
Inclination (degrees)
Orbital Period (minutes)
Azimuth
Elevation
Range (km)
Doppler Factor

Next 0 passes for location: London (51.5072 / 0.1276)

Sorry there are no passes over London.